www.pogodaiklimat.ru

Погода и климат >> Архив погоды >> Австралия >> Новый Южный Уэльс >> Айванхо


ПОГОДА в Айванхо

  • Прогноз погоды в Айванхо
  • Монитор погоды в Айванхо

АРХИВ ПОГОДЫ в Айванхо

Время (UTC), дата Ветер
(напр.,м/с)
 
Видим.   Явления Облачность Т
(С)
Тd
(С)
f
(%)
Тe
(С)
Тes
(С)
Комфортность P
(гПа)
Po
(гПа)
Тmin
(С)
Tmax
(С)
R
(мм)
R24
(мм)
S
(см)
04 19.08 ЮЗ 6 н/о н/о +13.8 -1.4 35 +12 +12 1025.6 1013.4
05 19.08 ЮЗ 7 н/о н/о +14.1 -1.9 33 +12 +12 1025.5 1013.3
07 19.08 ЮЗ 5 н/о н/о +13.7 -2.7 32 +12 +12 1026.4 1014.2
08 19.08 ЮЗ 4 н/о н/о +12.1 -2.5 36 +11 +11 1026.9 1014.7
10 19.08 З 3 н/о н/о +8.9 -2.4 45 +7 +7 1028.4 1016.2
11 19.08 З 3 н/о н/о +7.9 -2.1 49 +6 +6 1029.3 1017.1
13 19.08 З 3 н/о н/о +6.2 -2.2 55 +3 +3 1030.1 1017.8
14 19.08 З 4 н/о н/о +7.3 -1.4 54 +5 +5 1030.1 1017.8 +14.8
16 19.08 ЮЗ 4 н/о н/о +7.4 +0.2 60 +4 +4 1030.4 1018.1
17 19.08 З 4 н/о н/о +6.7 +0.6 65 +4 +4 1030.3 1018.0
19 19.08 ЮЗ 4 н/о н/о +5.5 +1.1 73 +2 +2 1029.6 1017.4
20 19.08 ЮЗ 3 н/о н/о +4.8 +1.1 77 +1 +1 1029.9 1017.7
22 19.08 З 3 н/о н/о +6.4 +2.3 75 +3 +3 1031.2 1018.9
23 19.08 ЮЗ 4 н/о н/о +9.6 +4.2 69 +7 +7 1031.7 1019.4
01 20.08 З 5 н/о н/о +13.1 +5.3 59 +11 +11 1031.6 1019.3
02 20.08 ЮЗ 5 н/о н/о +14.3 +4.6 52 +13 +13 1031.0 1018.7 +4.0
04 20.08 З 5 н/о н/о +16.4 +4.4 45 +16 +16 1028.9 1016.7
05 20.08 З 5 н/о н/о +17.2 +3.8 41 +17 +17 1028.2 1016.0
07 20.08 З 4 н/о н/о +17.0 +2.2 37 +17 +17 1027.6 1015.4
08 20.08 З 4 н/о н/о +15.4 +1.9 40 +15 +15 1027.7 1015.5
10 20.08 З 3 н/о н/о +11.7 +1.1 48 +11 +11 1027.9 1015.7
11 20.08 СЗ 3 н/о н/о +10.4 +1.2 53 +9 +9 1027.8 1015.6
13 20.08 СЗ 3 н/о н/о +9.3 +1.5 58 +7 +7 1027.5 1015.3
14 20.08 СЗ 3 н/о н/о +8.4 +1.3 61 +6 +6 1027.2 1015.0 +17.8
16 20.08 З 4 н/о н/о +9.1 +2.9 65 +7 +7 1026.9 1014.7
17 20.08 З 3 н/о н/о +7.8 +2.7 70 +5 +5 1026.3 1014.1
19 20.08 З 4 н/о н/о +7.7 +3.6 75 +5 +5 1025.7 1013.5
20 20.08 З 5 н/о н/о +9.8 +5.2 73 +7 +7 1026.2 1014.0
22 20.08 З 4 н/о н/о +11.5 +6.2 70 +10 +10 1026.9 1014.7
23 20.08 З 6 н/о н/о +12.7 +6.5 66 +10 +10 1027.0 1014.8
01 21.08 ЮЗ 7 н/о н/о +15.4 +6.7 56 +14 +14 1027.0 1014.8
02 21.08 ЮЗ 6 н/о н/о +16.0 +6.4 53 +15 +15 1026.4 1014.2 +6.6
04 21.08 З 6 н/о н/о +17.6 +6.5 48 +17 +17 1024.3 1012.1
05 21.08 ЮЗ 6 н/о н/о +18.1 +6.3 46 +18 +18 1023.9 1011.7
07 21.08 ЮЗ 7 н/о н/о +18.1 +6.0 45 +17 +17 1023.4 1011.2
08 21.08 З 6 н/о н/о +17.6 +6.5 48 +17 +17 1023.8 1011.6
10 21.08 З 4 н/о н/о +16.8 +6.3 50 +16 +16 1023.9 1011.7
11 21.08 З 4 н/о н/о +15.7 +6.4 54 +15 +15 1024.0 1011.8
13 21.08 ЮЗ 5 н/о н/о +15.1 +7.2 59 +14 +14 1024.2 1012.0
14 21.08 ЮЗ 5 н/о н/о +13.4 +7.4 67 +12 +12 1024.1 1011.9 +19.6
16 21.08 З 4 н/о н/о +11.6 +7.7 77 +9 +9 1024.1 1011.9
17 21.08 З 5 н/о н/о +10.8 +8.2 84 +8 +8 1023.8 1011.6
19 21.08 З 6 н/о н/о +10.3 +8.2 87 +7 +7 1023.7 1011.5
20 21.08 ЮЗ 6 н/о н/о +10.1 +7.5 84 +7 +7 1024.1 1011.9
22 21.08 З 5 н/о н/о +11.3 +7.0 75 +9 +9 1025.2 1013.0
23 21.08 ЮЗ 7 н/о н/о +12.8 +6.8 67 +10 +10 1025.7 1013.5
01 22.08 ЮЗ 8 н/о н/о +15.1 +6.7 57 +13 +13 1025.9 1013.7
02 22.08 ЮЗ 7 н/о н/о +16.7 +6.2 50 +15 +15 1025.0 1012.8 +9.8
04 22.08 Ю 7 н/о н/о +18.0 +5.6 44 +17 +17 1023.6 1011.4
05 22.08 Ю 7 н/о н/о +18.5 +5.0 41 +18 +18 1023.2 1011.0
07 22.08 Ю 8 н/о н/о +17.7 +4.6 42 +17 +17 1023.7 1011.5
08 22.08 Ю 7 н/о н/о +16.4 +4.4 45 +15 +15 1024.1 1011.9
10 22.08 Ю 4 н/о н/о +13.8 +4.4 53 +12 +12 1025.2 1013.0
11 22.08 Ю 4 н/о н/о +12.6 +4.1 56 +11 +11 1025.8 1013.6
13 22.08 Ю 3 н/о н/о +10.2 +3.7 64 +9 +9 1025.9 1013.7
14 22.08 Ю 3 н/о н/о +8.4 +2.8 68 +6 +6 1025.8 1013.6 +19.3
16 22.08 Ю 3 н/о н/о +6.0 +1.3 72 +3 +3 1025.5 1013.3
17 22.08 Ю 3 н/о н/о +5.2 +0.6 72 +2 +2 1025.5 1013.3
19 22.08 ЮЗ 2 н/о н/о +2.9 -0.5 78 -0 -0 1025.6 1013.4
20 22.08 Ю 2 н/о н/о +2.8 -0.6 78 -0 -0 1026.3 1014.1
22 22.08 Ю 2 н/о н/о +4.9 +0.5 73 +3 +3 1027.5 1015.3
23 22.08 В 3 н/о н/о +9.3 +1.7 59 +8 +8 1027.6 1015.4
01 23.08 В 3 н/о н/о +13.9 +1.9 44 +13 +13 1027.1 1014.9
02 23.08 СВ 3 н/о н/о +15.0 +0.4 37 +15 +15 1026.0 1013.8 +1.9
04 23.08 ЮВ 3 н/о н/о +16.7 -0.9 30 +17 +17 1023.3 1011.1
05 23.08 З 2 н/о н/о +18.2 -0.6 28 +19 +19 1022.7 1010.5
07 23.08 В 2 н/о н/о +18.2 -1.6 26 +19 +19 1021.9 1009.7
08 23.08 ЮВ 2 н/о н/о +15.6 -1.9 30 +16 +16 1022.3 1010.1
10 23.08 ЮВ 3 н/о н/о +12.5 -2.1 36 +12 +12 1023.2 1011.0
11 23.08 ЮВ 3 н/о н/о +11.4 -2.0 39 +10 +10 1022.7 1010.5
13 23.08 СВ 3 н/о н/о +8.4 -2.5 46 +7 +7 1021.9 1009.7
14 23.08 СВ 3 н/о н/о +7.9 -2.4 48 +6 +6 1021.4 1009.3 +19.4
16 23.08 С 4 н/о н/о +6.6 -3.1 50 +4 +4 1020.4 1008.3
17 23.08 С 4 н/о н/о +6.0 -3.6 50 +3 +3 1019.7 1007.6
19 23.08 С 4 н/о н/о +5.5 -3.6 52 +2 +2 1019.5 1007.4
20 23.08 С 3 н/о н/о +5.3 -4.0 51 +2 +2 1019.8 1007.7
22 23.08 С 3 н/о н/о +8.7 -2.6 45 +7 +7 1020.6 1008.5
23 23.08 С 3 н/о н/о +12.8 -1.9 36 +12 +12 1020.6 1008.5
01 24.08 СЗ 5 н/о н/о +18.5 -2.4 24 +18 +18 1019.8 1007.7
02 24.08 СЗ 5 н/о н/о +20.0 -2.3 22 +20 +20 1018.8 1006.7 +3.0
04 24.08 СЗ 5 н/о н/о +21.6 -3.0 19 +21 +21 комфорт 1016.5 1004.4
05 24.08 СЗ 6 н/о н/о +22.2 -3.2 18 +21 +21 комфорт 1015.7 1003.6
07 24.08 СЗ 6 н/о н/о +21.6 -3.7 18 +21 +21 комфорт 1015.4 1003.3
08 24.08 СЗ 4 н/о н/о +19.6 -3.9 20 +20 +20 1015.8 1003.7
10 24.08 С 3 н/о н/о +15.7 -3.7 26 +15 +15 1016.5 1004.4
11 24.08 С 3 н/о н/о +14.7 -3.6 28 +14 +14 1016.7 1004.6
13 24.08 С 4 н/о н/о +12.2 -3.6 33 +11 +11 1016.6 1004.5
14 24.08 ЮЗ 5 н/о н/о +11.7 -4.0 33 +10 +10 1017.5 1005.4 +22.7
16 24.08 Ю 5 н/о н/о +11.4 +6.3 71 +9 +9 1018.3 1006.2
17 24.08 Ю 6 н/о н/о +10.6 +4.9 68 +8 +8 1018.6 1006.5
19 24.08 ЮЗ 5 н/о н/о +9.0 +4.4 73 +6 +6 1019.6 1007.5
20 24.08 ЮЗ 4 н/о н/о +7.6 +4.0 78 +4 +4 1020.2 1008.1
22 24.08 ЮЗ 5 н/о н/о +7.8 +3.8 76 +4 +4 1021.7 1009.5
23 24.08 Ю 6 н/о н/о +10.2 +4.1 66 +7 +7 1022.6 1010.4
01 25.08 Ю 6 н/о н/о +13.8 +3.6 50 +12 +12 1022.4 1010.2
02 25.08 Ю 6 н/о н/о +14.4 +2.6 45 +13 +13 1022.3 1010.1 +6.9
04 25.08 Ю 6 н/о н/о +15.2 +0.6 37 +14 +14 1020.9 1008.8
05 25.08 ЮЗ 5 н/о н/о +15.8 -0.4 33 +15 +15 1020.8 1008.7
07 25.08 ЮЗ 6 н/о н/о +15.0 -1.5 32 +14 +14 1021.1 1009.0
08 25.08 Ю 5 н/о н/о +13.4 -2.5 33 +12 +12 1021.9 1009.7
10 25.08 Ю 3 н/о н/о +9.5 -2.1 44 +8 +8 1023.2 1011.0
11 25.08 Ю 4 н/о н/о +8.3 -2.6 46 +6 +6 1023.7 1011.5
13 25.08 Ю 3 н/о н/о +7.0 -2.7 50 +5 +5 1024.3 1012.1
14 25.08 ЮЗ 3 н/о н/о +6.2 -2.4 54 +3 +3 1024.0 1011.8 +16.5
16 25.08 ЮЗ 3 н/о н/о +4.2 -2.9 60 +1 +1 1023.8 1011.6
17 25.08 ЮЗ 3 н/о н/о +3.1 -3.0 64 -0 -0 1023.5 1011.3
19 25.08 ЮЗ 3 н/о н/о +2.7 -2.2 70 -1 -1 1023.4 1011.2
20 25.08 ЮЗ 3 н/о н/о +1.9 -2.4 73 -2 -2 1024.0 1011.8
22 25.08 ЮЗ 3 н/о н/о +5.2 0.0 69 +2 +2 1025.5 1013.3
23 25.08 Ю 4 н/о н/о +8.9 +2.3 63 +6 +6 1025.7 1013.5
01 26.08 Ю 5 н/о н/о +13.1 +2.1 47 +11 +11 1025.4 1013.2
02 26.08 Ю 5 н/о н/о +14.1 +0.4 39 +13 +13 1024.7 1012.5 +1.5
04 26.08 Ю 7 н/о н/о +15.3 -0.4 34 +14 +14 1023.0 1010.8

 

Местоположение метеостанции Айванхо (Новый Южный Уэльс, Австралия): широта -32.88 долгота 144.32 высота над уровнем моря 100 м.

В архиве по умолчанию представлена погода в Айванхо за последнюю неделю. Архивные данные за месяц целиком и за предыдущие месяцы, начиная с января 2011 года, Вы можете получить, выбрав интересующий диапазон дат из раскрывающегося списка и нажав кнопку "Ввод!".


*Определитесь, кто Вы:
робот инопланетянин человек

Внимание! Время в таблицах - всемирное. Для получения местного времени необходимо прибавить поправку, которая равна 10 ч.

Смотрите также архив погоды в соседних городах и на ближайших метеорологических станциях:

Погода в Уилкании (Новый Южный Уэльс, Австралия) (175 км)
Погода в Хее (Новый Южный Уэльс, Австралия) (189 км)
Погода в Кобар аэропорту (Новый Южный Уэльс, Австралия) (205 км)
Погода в Кобаре (Новый Южный Уэльс, Австралия) (211 км)
Погода в Гриффите (Новый Южный Уэльс, Австралия) (223 км)
Погода в Уафт Клифс (Новый Южный Уэльс, Австралия) (255 км)
Погода в Милдьюре (Новый Южный Уэльс, Австралия) (256 км)
Погода в Кондоболине (Новый Южный Уэльс, Австралия) (271 км)
Погода в Янко (Новый Южный Уэльс, Австралия) (275 км)
Погода в Брокен-Хилл аэропорту (Новый Южный Уэльс, Австралия) (286 км)

Пояснения к столбцам:

Ветер - указаны скорость ветра в м/с - средняя за 10 мин, порывы в срок и между сроками (в фигурных скобках) и направление, откуда дует ветер: С - северный, СВ - северо-восточный, В - восточный, ЮВ - юго-восточный, Ю - южный, ЮЗ - юго-западный, З - западный, СЗ - северо-западный.
Видимость - горизонтальная дальность видимости в метрах или километрах. При видимости от 1 до 10 км при отсутствии осадков обычно наблюдается дымка, при ухудшении видимости до 1 км и менее - туман. В сухую погоду видимость может ухудшаться дымом, пылью или мглою.
Явления - указаны атмосферные явления, наблюдавшиеся в срок или в последний час перед сроком; фигурными скобками обозначены явления, наблюдавшиеся между сроками (за 1-3 часа до срока); квадратными скобками обозначены град или гололедные отложения с указанием их диаметра в мм.
Облачность - указаны через наклонную черту общая и нижняя облачность в баллах и высота нижней границы облаков в метрах; квадратными скобками обозначены формы облаков: Ci - перистые, Cs - перисто-слоистые, Cc - перисто-кучевые, Ac - высококучевые, As - высокослоистые, Sc - слоисто-кучевые, Ns - слоисто-дождевые, Cu - кучевые, Cb - кучево-дождевые. Подробнее классификацию облаков см. в Атласе облаков (PDF).
T - Температура воздуха - температура, измеренная на высоте 2 м над землей.
Td - Температура точки росы - температура, при понижении до которой содержащийся в воздухе водяной пар достигнет насыщения.
f - Относительная влажность воздуха - влажноcть воздуха, измеренная на высоте 2 м над землей.
Te - Эффективная температура - температура, которую ощущает одетый по сезону человек в тени. Характеристика душности погоды. При расчете учитывается влияние влажности воздуха и скорости ветра на теплоощущения человека.
Tes - Эффективная температура на солнце - температура, которую ощущает человек, с поправкой на солнечный нагрев. Характеристика знойности погоды. Зависит от высоты солнца над горизонтом, облачности и скорости ветра. Ночью, в пасмурную погоду, а также при ветре 12 м/с и более поправка равна нулю.
P - Атмосферное давление - приведенное к уровню моря атмосферное давление.
Po - Атмосферное давление - измеренное на уровне метеостанции атмосферное давление.
Tmin - Минимальная температура - минимум температуры воздуха на высоте 2 м над землей.
Tmax - Максимальная температура - максимум температуры воздуха на высоте 2 м над землей.
R - Количество осадков - Количество выпавших осадков за период времени, мм. При наведении курсора мыши на число - период времени, за который выпало указанное количество осадков.
R24 - Количество осадков - Количество выпавших осадков за 24 часа, мм.
S - Снежный покров - Высота снежного покрова, см. При наведении курсора мыши на число - состояние снежного покрова и степень покрытия местности в баллах.